PIMOHWEATHER Station Historical Data
Daily Summary for August 04, 2020 Units:  Metric    English   Both
Daily Weekly Monthly Yearly
  High: Low: Average:
Temperature: 35.0 °C 27.0 °C 29.6 °C
Dew Point: 26.0 °C 23.0 °C 24.1 °C
Humidity: 88% 55% 73%
Wind Speed: 33km/h 0km/h 10.8km/h
Wind Gust: 40km/h - -
Wind- - SE
Pressure: 1014.1 hPa 1008.8 hPa -
Precipitation: 5.11 mm    
 
 
Tabular Data for August 04, 2020
Time Temperature Dew Point Pressure Wind Wind Speed Wind Gust Humidity Rainfall Rate (Hourly) solar
00:03 29.0 °C 24.0 °C 1011.5 hPa NE 8 km/h 8 km/h 75% 0.00 mm 0.00 W/m2
00:14 28.0 °C 24.0 °C 1011.6 hPa NNE 14 km/h 16 km/h 78% 0.00 mm 0.00 W/m2
00:19 28.0 °C 24.0 °C 1011.8 hPa NE 10 km/h 12 km/h 78% 0.00 mm 0.00 W/m2
00:24 28.0 °C 24.0 °C 1011.6 hPa NNE 9 km/h 12 km/h 78% 0.00 mm 0.00 W/m2
00:29 28.0 °C 24.0 °C 1011.7 hPa NE 10 km/h 12 km/h 79% 0.00 mm 0.00 W/m2
00:34 28.0 °C 24.0 °C 1011.5 hPa NE 9 km/h 12 km/h 79% 0.00 mm 0.00 W/m2
00:39 28.0 °C 24.0 °C 1011.6 hPa NNE 10 km/h 12 km/h 79% 0.00 mm 0.00 W/m2
00:44 28.0 °C 24.0 °C 1011.6 hPa NNE 12 km/h 12 km/h 79% 0.00 mm 0.00 W/m2
00:49 28.0 °C 24.0 °C 1011.5 hPa NNE 8 km/h 12 km/h 79% 0.00 mm 0.00 W/m2
00:54 28.0 °C 24.0 °C 1011.6 hPa NNE 8 km/h 8 km/h 80% 0.00 mm 0.00 W/m2
00:59 28.0 °C 24.0 °C 1011.5 hPa NE 8 km/h 8 km/h 80% 0.00 mm 0.00 W/m2
01:04 28.0 °C 24.0 °C 1011.5 hPa Calm     80% 0.00 mm 0.00 W/m2
01:09 28.0 °C 24.0 °C 1011.5 hPa NE 5 km/h 8 km/h 79% 0.00 mm 0.00 W/m2
01:14 28.0 °C 24.0 °C 1011.5 hPa NE 4 km/h 4 km/h 79% 0.00 mm 0.00 W/m2
01:19 28.0 °C 24.0 °C 1011.5 hPa NNE 8 km/h 8 km/h 79% 0.00 mm 0.00 W/m2
01:24 28.0 °C 24.0 °C 1011.5 hPa NNE 6 km/h 8 km/h 79% 0.00 mm 0.00 W/m2
01:29 28.0 °C 24.0 °C 1011.5 hPa NNE 8 km/h 8 km/h 79% 0.00 mm 0.00 W/m2
01:34 28.0 °C 24.0 °C 1011.5 hPa NE 7 km/h 8 km/h 79% 0.00 mm 0.00 W/m2
01:39 28.0 °C 24.0 °C 1011.4 hPa NE 4 km/h 4 km/h 78% 0.00 mm 0.00 W/m2
01:44 28.0 °C 24.0 °C 1011.4 hPa NE 3 km/h 4 km/h 78% 0.00 mm 0.00 W/m2
01:47 28.0 °C 24.0 °C 1011.4 hPa NE 3 km/h 4 km/h 77% 0.00 mm 0.00 W/m2
01:52 28.0 °C 24.0 °C 1011.3 hPa NE 5 km/h 8 km/h 77% 0.00 mm 0.00 W/m2
01:59 28.0 °C 24.0 °C 1011.4 hPa NE 10 km/h 12 km/h 78% 0.00 mm 0.00 W/m2
02:04 28.0 °C 24.0 °C 1011.4 hPa NNE 9 km/h 12 km/h 78% 0.00 mm 0.00 W/m2
02:09 28.0 °C 23.0 °C 1011.3 hPa NNE 8 km/h 12 km/h 78% 0.00 mm 0.00 W/m2
02:14 28.0 °C 24.0 °C 1011.4 hPa NNE 13 km/h 16 km/h 79% 0.00 mm 0.00 W/m2
02:19 28.0 °C 23.0 °C 1011.3 hPa NNE 13 km/h 16 km/h 78% 0.00 mm 0.00 W/m2
02:24 28.0 °C 23.0 °C 1011.3 hPa NNE 7 km/h 8 km/h 78% 0.00 mm 0.00 W/m2
02:29 28.0 °C 23.0 °C 1011.3 hPa NE 9 km/h 12 km/h 78% 0.00 mm 0.00 W/m2
02:34 28.0 °C 23.0 °C 1011.4 hPa NNE 9 km/h 12 km/h 78% 0.00 mm 0.00 W/m2
02:39 28.0 °C 23.0 °C 1011.5 hPa NE 1 km/h 4 km/h 77% 0.00 mm 0.00 W/m2
02:44 28.0 °C 23.0 °C 1011.7 hPa NE 8 km/h 12 km/h 77% 0.00 mm 0.00 W/m2
02:49 28.0 °C 23.0 °C 1011.5 hPa NE 6 km/h 8 km/h 77% 0.00 mm 0.00 W/m2
02:54 28.0 °C 23.0 °C 1011.5 hPa NE 10 km/h 12 km/h 78% 0.00 mm 0.00 W/m2
02:59 27.0 °C 23.0 °C 1011.5 hPa NE 6 km/h 8 km/h 78% 0.00 mm 0.00 W/m2
03:04 27.0 °C 23.0 °C 1011.5 hPa NE 9 km/h 12 km/h 78% 0.00 mm 0.00 W/m2
03:09 27.0 °C 23.0 °C 1011.4 hPa NE 9 km/h 12 km/h 78% 0.00 mm 0.00 W/m2
03:14 27.0 °C 23.0 °C 1011.3 hPa NNE 9 km/h 12 km/h 79% 0.00 mm 0.00 W/m2
03:19 27.0 °C 23.0 °C 1011.4 hPa NNE 5 km/h 8 km/h 79% 0.00 mm 0.00 W/m2
03:24 27.0 °C 23.0 °C 1011.2 hPa NNE 6 km/h 8 km/h 79% 0.00 mm 0.00 W/m2
03:29 27.0 °C 23.0 °C 1011.4 hPa NE 9 km/h 12 km/h 78% 0.00 mm 0.00 W/m2
03:31 27.0 °C 23.0 °C 1011.2 hPa Calm   4 km/h 78% 0.00 mm 0.00 W/m2
03:44 27.0 °C 23.0 °C 1011.4 hPa NE 6 km/h 8 km/h 78% 0.00 mm 0.00 W/m2
03:49 27.0 °C 23.0 °C 1011.3 hPa NE 1 km/h 4 km/h 78% 0.00 mm 0.00 W/m2
03:54 27.0 °C 23.0 °C 1011.2 hPa NE 4 km/h 4 km/h 78% 0.00 mm 0.00 W/m2
03:59 27.0 °C 23.0 °C 1011.2 hPa NE 5 km/h 8 km/h 78% 0.00 mm 0.00 W/m2
04:04 27.0 °C 23.0 °C 1011.1 hPa NE 4 km/h 4 km/h 78% 0.00 mm 0.00 W/m2
04:09 27.0 °C 23.0 °C 1011.2 hPa NE 9 km/h 12 km/h 78% 0.00 mm 0.00 W/m2
04:14 27.0 °C 23.0 °C 1011.4 hPa NE 4 km/h 8 km/h 78% 0.00 mm 0.00 W/m2
04:19 27.0 °C 23.0 °C 1011.2 hPa NE 4 km/h 8 km/h 78% 0.00 mm 0.00 W/m2
04:24 27.0 °C 23.0 °C 1011.4 hPa NE 8 km/h 12 km/h 79% 0.00 mm 0.00 W/m2
04:29 27.0 °C 23.0 °C 1011.4 hPa NE 10 km/h 12 km/h 79% 0.00 mm 0.00 W/m2
04:34 27.0 °C 23.0 °C 1011.3 hPa NE 9 km/h 12 km/h 79% 0.00 mm 0.00 W/m2
04:39 27.0 °C 23.0 °C 1011.3 hPa NNE 8 km/h 8 km/h 79% 0.00 mm 0.00 W/m2
04:44 27.0 °C 23.0 °C 1011.3 hPa NNE 8 km/h 12 km/h 79% 0.00 mm 0.00 W/m2
04:49 27.0 °C 23.0 °C 1011.3 hPa NNE 9 km/h 12 km/h 80% 0.00 mm 0.00 W/m2
04:54 27.0 °C 23.0 °C 1011.5 hPa NNE 11 km/h 12 km/h 80% 0.00 mm 0.00 W/m2
04:59 27.0 °C 23.0 °C 1011.5 hPa North 9 km/h 12 km/h 80% 0.00 mm 0.00 W/m2
05:04 27.0 °C 23.0 °C 1011.4 hPa NNE 10 km/h 12 km/h 81% 0.00 mm 0.00 W/m2
05:09 27.0 °C 23.0 °C 1011.3 hPa NNE 8 km/h 12 km/h 80% 0.00 mm 0.00 W/m2
05:14 27.0 °C 23.0 °C 1011.4 hPa NE 10 km/h 12 km/h 80% 0.00 mm 0.00 W/m2
05:24 27.0 °C 23.0 °C 1011.5 hPa NNE 5 km/h 8 km/h 79% 0.00 mm 0.00 W/m2
05:29 27.0 °C 23.0 °C 1011.5 hPa NNE 9 km/h 12 km/h 79% 0.00 mm 0.00 W/m2
05:34 27.0 °C 23.0 °C 1011.6 hPa NNE 10 km/h 12 km/h 80% 0.00 mm 0.00 W/m2
05:39 27.0 °C 23.0 °C 1011.6 hPa NNE 8 km/h 8 km/h 80% 0.00 mm 0.36 W/m2
05:44 27.0 °C 23.0 °C 1011.6 hPa NNE 10 km/h 12 km/h 80% 0.00 mm 3.43 W/m2
05:49 27.0 °C 23.0 °C 1011.6 hPa NE 10 km/h 12 km/h 81% 0.00 mm 6.85 W/m2
05:54 27.0 °C 23.0 °C 1011.8 hPa NNE 11 km/h 12 km/h 81% 0.00 mm 11.25 W/m2
05:59 27.0 °C 23.0 °C 1011.8 hPa NE 10 km/h 12 km/h 81% 0.00 mm 17.73 W/m2
06:04 27.0 °C 24.0 °C 1011.7 hPa NNE 12 km/h 12 km/h 82% 0.00 mm 24.71 W/m2
06:09 27.0 °C 23.0 °C 1011.8 hPa NNE 6 km/h 8 km/h 81% 0.00 mm 30.70 W/m2
06:14 27.0 °C 23.0 °C 1011.8 hPa NNE 10 km/h 12 km/h 81% 0.00 mm 37.19 W/m2
06:19 27.0 °C 23.0 °C 1011.9 hPa NNE 8 km/h 12 km/h 80% 0.00 mm 43.31 W/m2
06:24 27.0 °C 24.0 °C 1011.8 hPa NE 5 km/h 8 km/h 80% 0.00 mm 48.56 W/m2
06:29 27.0 °C 23.0 °C 1011.9 hPa NE 4 km/h 4 km/h 79% 0.00 mm 53.70 W/m2
06:34 27.0 °C 24.0 °C 1011.9 hPa NNE 9 km/h 12 km/h 79% 0.00 mm 59.33 W/m2
06:39 27.0 °C 23.0 °C 1011.7 hPa NNE 8 km/h 12 km/h 79% 0.00 mm 64.59 W/m2
06:44 27.0 °C 24.0 °C 1011.8 hPa NNE 9 km/h 12 km/h 79% 0.00 mm 71.07 W/m2
06:49 27.0 °C 23.0 °C 1011.9 hPa NE 8 km/h 8 km/h 79% 0.00 mm 82.33 W/m2
06:54 28.0 °C 23.0 °C 1012.0 hPa NE 3 km/h 4 km/h 78% 0.00 mm 95.42 W/m2
06:59 28.0 °C 23.0 °C 1012.0 hPa NE 4 km/h 4 km/h 77% 0.00 mm 105.82 W/m2
07:04 28.0 °C 23.0 °C 1011.9 hPa NE 4 km/h 4 km/h 76% 0.00 mm 116.22 W/m2
07:09 28.0 °C 23.0 °C 1012.0 hPa NE 4 km/h 4 km/h 75% 0.00 mm 126.12 W/m2
07:19 28.0 °C 23.0 °C 1011.9 hPa NNE 13 km/h 16 km/h 75% 0.00 mm 147.41 W/m2
07:24 28.0 °C 23.0 °C 1012.2 hPa NE 20 km/h 24 km/h 75% 0.00 mm 158.67 W/m2
07:29 28.0 °C 23.0 °C 1012.1 hPa NNE 14 km/h 16 km/h 75% 0.00 mm 167.36 W/m2
07:34 28.0 °C 23.0 °C 1012.0 hPa NE 12 km/h 12 km/h 75% 0.00 mm 171.27 W/m2
07:39 29.0 °C 23.0 °C 1012.1 hPa NE 7 km/h 8 km/h 74% 0.00 mm 174.81 W/m2
07:44 29.0 °C 24.0 °C 1012.0 hPa NNE 10 km/h 12 km/h 74% 0.00 mm 169.07 W/m2
07:49 29.0 °C 24.0 °C 1011.9 hPa NNE 13 km/h 16 km/h 74% 0.00 mm 152.68 W/m2
07:54 29.0 °C 23.0 °C 1011.9 hPa NNE 17 km/h 20 km/h 74% 0.00 mm 142.27 W/m2
07:59 29.0 °C 23.0 °C 1012.2 hPa NNE 12 km/h 16 km/h 74% 0.00 mm 138.36 W/m2
08:04 29.0 °C 23.0 °C 1012.2 hPa NNE 11 km/h 12 km/h 74% 0.00 mm 141.78 W/m2
08:09 29.0 °C 23.0 °C 1012.4 hPa NE 10 km/h 16 km/h 74% 0.00 mm 156.59 W/m2
08:14 29.0 °C 24.0 °C 1012.2 hPa NE 8 km/h 12 km/h 73% 0.00 mm 180.44 W/m2
08:19 29.0 °C 24.0 °C 1012.2 hPa NNE 8 km/h 8 km/h 72% 0.00 mm 201.61 W/m2
08:24 29.0 °C 24.0 °C 1012.2 hPa NNE 16 km/h 20 km/h 72% 0.00 mm 205.52 W/m2
08:28 29.0 °C 23.0 °C 1012.2 hPa NNE 18 km/h 20 km/h 73% 0.00 mm 212.13 W/m2
08:34 29.0 °C 23.0 °C 1011.9 hPa NNE 17 km/h 20 km/h 72% 0.00 mm 243.69 W/m2
08:39 29.0 °C 23.0 °C 1011.9 hPa NNE 15 km/h 16 km/h 72% 0.00 mm 263.76 W/m2
08:44 29.0 °C 23.0 °C 1012.0 hPa NNE 15 km/h 20 km/h 72% 0.00 mm 264.61 W/m2
08:49 29.0 °C 23.0 °C 1012.0 hPa NNE 14 km/h 16 km/h 72% 0.00 mm 256.78 W/m2
08:54 29.0 °C 23.0 °C 1011.8 hPa North 15 km/h 16 km/h 71% 0.00 mm 234.15 W/m2
08:59 29.0 °C 23.0 °C 1011.9 hPa NE 15 km/h 16 km/h 71% 0.00 mm 223.75 W/m2
09:04 29.0 °C 23.0 °C 1011.9 hPa NNE 11 km/h 12 km/h 71% 0.00 mm 218.12 W/m2
09:09 29.0 °C 23.0 °C 1012.0 hPa NNE 8 km/h 12 km/h 71% 0.00 mm 206.38 W/m2
09:14 30.0 °C 23.0 °C 1012.0 hPa NE 4 km/h 4 km/h 70% 0.00 mm 205.52 W/m2
09:19 30.0 °C 24.0 °C 1012.1 hPa NE 6 km/h 8 km/h 69% 0.00 mm 205.52 W/m2
09:24 30.0 °C 24.0 °C 1011.8 hPa ENE 5 km/h 8 km/h 69% 0.00 mm 201.24 W/m2
09:29 30.0 °C 24.0 °C 1011.9 hPa ENE 4 km/h 4 km/h 68% 0.00 mm 204.66 W/m2
09:34 30.0 °C 24.0 °C 1011.7 hPa NE 7 km/h 8 km/h 68% 0.00 mm 217.76 W/m2
09:39 30.0 °C 23.0 °C 1011.9 hPa NE 7 km/h 8 km/h 68% 0.00 mm 236.84 W/m2
09:44 30.0 °C 23.0 °C 1011.8 hPa NNE 5 km/h 8 km/h 67% 0.00 mm 317.46 W/m2
09:49 31.0 °C 23.0 °C 1011.8 hPa NE 5 km/h 8 km/h 66% 0.00 mm 734.87 W/m2
09:54 31.0 °C 24.0 °C 1011.8 hPa SE 5 km/h 8 km/h 64% 0.00 mm 926.09 W/m2
09:59 32.0 °C 24.0 °C 1011.7 hPa SSE 14 km/h 16 km/h 63% 0.00 mm 947.86 W/m2
10:04 32.0 °C 24.0 °C 1011.8 hPa SSW 15 km/h 20 km/h 63% 0.00 mm 761.67 W/m2
10:09 32.0 °C 24.0 °C 1011.7 hPa WNW 5 km/h 8 km/h 62% 0.00 mm 756.04 W/m2
10:14 32.0 °C 24.0 °C 1011.8 hPa NE 9 km/h 16 km/h 60% 0.00 mm 763.87 W/m2
10:19 33.0 °C 24.0 °C 1011.9 hPa ESE 18 km/h 20 km/h 60% 0.00 mm 807.29 W/m2
10:24 33.0 °C 24.0 °C 1011.7 hPa NNE 13 km/h 16 km/h 59% 0.00 mm 764.72 W/m2
10:29 33.0 °C 24.0 °C 1011.7 hPa NNE 20 km/h 20 km/h 61% 0.00 mm 804.73 W/m2
10:34 32.0 °C 23.0 °C 1011.7 hPa SW 22 km/h 24 km/h 59% 0.00 mm 919.23 W/m2
10:39 33.0 °C 23.0 °C 1011.5 hPa SSE 19 km/h 24 km/h 58% 0.00 mm 917.88 W/m2
10:44 34.0 °C 23.0 °C 1011.5 hPa East 10 km/h 12 km/h 55% 0.00 mm 914.83 W/m2
10:49 34.0 °C 25.0 °C 1011.5 hPa NNW 11 km/h 16 km/h 62% 0.00 mm 918.37 W/m2
10:54 33.0 °C 25.0 °C 1011.5 hPa SW 18 km/h 28 km/h 64% 0.00 mm 396.49 W/m2
10:59 32.0 °C 25.0 °C 1011.5 hPa SW 20 km/h 24 km/h 65% 0.00 mm 629.42 W/m2
11:04 32.0 °C 25.0 °C 1011.4 hPa WSW 20 km/h 20 km/h 66% 0.00 mm 593.82 W/m2
11:09 32.0 °C 24.0 °C 1011.2 hPa West 13 km/h 20 km/h 63% 0.00 mm 409.94 W/m2
11:14 32.0 °C 25.0 °C 1011.5 hPa West 14 km/h 20 km/h 64% 0.00 mm 659.39 W/m2
11:19 32.0 °C 24.0 °C 1011.2 hPa NW 18 km/h 20 km/h 63% 0.00 mm 749.55 W/m2
11:24 33.0 °C 25.0 °C 1011.2 hPa WSW 15 km/h 20 km/h 63% 0.00 mm 658.90 W/m2
11:29 33.0 °C 25.0 °C 1011.3 hPa WNW 17 km/h 24 km/h 63% 0.00 mm 708.33 W/m2
11:34 33.0 °C 25.0 °C 1011.2 hPa NW 18 km/h 24 km/h 64% 0.00 mm 637.25 W/m2
11:39 33.0 °C 25.0 °C 1011.1 hPa NNW 20 km/h 24 km/h 63% 0.00 mm 738.78 W/m2
11:44 32.0 °C 24.0 °C 1011.2 hPa WNW 15 km/h 20 km/h 63% 0.00 mm 555.65 W/m2
11:49 33.0 °C 24.0 °C 1011.2 hPa West 8 km/h 8 km/h 61% 0.00 mm 755.18 W/m2
11:54 33.0 °C 24.0 °C 1011.0 hPa NW 19 km/h 24 km/h 61% 0.00 mm 559.08 W/m2
11:59 33.0 °C 24.0 °C 1011.0 hPa SW 16 km/h 24 km/h 62% 0.00 mm 451.54 W/m2
12:04 32.0 °C 24.0 °C 1011.2 hPa WSW 15 km/h 20 km/h 63% 0.00 mm 723.99 W/m2
12:09 33.0 °C 24.0 °C 1011.0 hPa WSW 15 km/h 20 km/h 62% 0.00 mm 573.88 W/m2
12:14 33.0 °C 24.0 °C 1011.0 hPa WSW 10 km/h 12 km/h 61% 0.00 mm 803.75 W/m2
12:19 33.0 °C 25.0 °C 1010.9 hPa West 10 km/h 16 km/h 61% 0.00 mm 767.78 W/m2
12:24 33.0 °C 25.0 °C 1010.9 hPa West 14 km/h 24 km/h 63% 0.00 mm 510.14 W/m2
12:29 33.0 °C 25.0 °C 1010.9 hPa SW 14 km/h 20 km/h 63% 0.00 mm 724.35 W/m2
12:34 33.0 °C 25.0 °C 1010.6 hPa NW 20 km/h 24 km/h 64% 0.00 mm 507.45 W/m2
12:38 32.0 °C 25.0 °C 1010.7 hPa WSW 12 km/h 16 km/h 64% 0.00 mm 261.55 W/m2
12:44 32.0 °C 24.0 °C 1010.7 hPa WNW 12 km/h 20 km/h 65% 0.00 mm 126.12 W/m2
12:49 32.0 °C 25.0 °C 1010.9 hPa NNW 17 km/h 20 km/h 66% 0.00 mm 104.48 W/m2
12:54 31.0 °C 25.0 °C 1010.7 hPa NNW 15 km/h 20 km/h 67% 0.00 mm 100.56 W/m2
12:59 31.0 °C 24.0 °C 1010.7 hPa North 17 km/h 20 km/h 67% 0.00 mm 104.10 W/m2
13:04 31.0 °C 24.0 °C 1010.8 hPa NNW 15 km/h 20 km/h 67% 0.00 mm 427.69 W/m2
13:09 31.0 °C 24.0 °C 1010.7 hPa NNW 23 km/h 32 km/h 67% 0.00 mm 275.86 W/m2
13:14 31.0 °C 24.0 °C 1010.6 hPa NNW 27 km/h 32 km/h 66% 0.00 mm 208.58 W/m2
13:19 31.0 °C 24.0 °C 1010.6 hPa NNW 22 km/h 24 km/h 66% 0.00 mm 465.00 W/m2
13:24 32.0 °C 24.0 °C 1010.4 hPa NNW 22 km/h 24 km/h 65% 0.00 mm 814.27 W/m2
13:29 32.0 °C 24.0 °C 1010.3 hPa NNW 28 km/h 36 km/h 63% 0.00 mm 835.07 W/m2
13:34 32.0 °C 24.0 °C 1010.2 hPa NNW 23 km/h 24 km/h 63% 0.00 mm 810.72 W/m2
13:39 32.0 °C 24.0 °C 1010.2 hPa NNW 23 km/h 28 km/h 62% 0.00 mm 743.07 W/m2
13:44 32.0 °C 24.0 °C 1010.2 hPa NNW 21 km/h 32 km/h 62% 0.00 mm 783.44 W/m2
13:49 33.0 °C 24.0 °C 1010.1 hPa NNW 23 km/h 28 km/h 62% 0.00 mm 798.61 W/m2
13:54 33.0 °C 24.0 °C 1010.1 hPa NNW 18 km/h 20 km/h 61% 0.00 mm 810.36 W/m2
13:59 34.0 °C 24.0 °C 1009.9 hPa NW 21 km/h 28 km/h 59% 0.00 mm 780.75 W/m2
14:04 34.0 °C 25.0 °C 1009.8 hPa NNW 23 km/h 28 km/h 59% 0.00 mm 783.44 W/m2
14:09 34.0 °C 24.0 °C 1009.7 hPa NNW 26 km/h 32 km/h 59% 0.00 mm 775.12 W/m2
14:14 33.0 °C 25.0 °C 1009.7 hPa North 22 km/h 28 km/h 60% 0.00 mm 277.58 W/m2
14:19 33.0 °C 24.0 °C 1009.4 hPa NNW 20 km/h 32 km/h 60% 0.00 mm 431.11 W/m2
14:24 33.0 °C 24.0 °C 1009.6 hPa NNW 26 km/h 32 km/h 60% 0.00 mm 667.10 W/m2
14:29 33.0 °C 24.0 °C 1009.5 hPa NNW 27 km/h 32 km/h 61% 0.00 mm 605.93 W/m2
14:34 33.0 °C 24.0 °C 1009.5 hPa NNW 18 km/h 24 km/h 61% 0.00 mm 599.08 W/m2
14:39 33.0 °C 24.0 °C 1009.4 hPa NNW 26 km/h 32 km/h 60% 0.00 mm 609.48 W/m2
14:44 34.0 °C 25.0 °C 1009.4 hPa NW 29 km/h 32 km/h 59% 0.00 mm 624.65 W/m2
14:49 33.0 °C 24.0 °C 1009.4 hPa NNW 18 km/h 24 km/h 60% 0.00 mm 642.02 W/m2
14:54 34.0 °C 24.0 °C 1009.4 hPa NNW 26 km/h 28 km/h 58% 0.00 mm 648.87 W/m2
14:59 34.0 °C 24.0 °C 1009.4 hPa NW 17 km/h 20 km/h 58% 0.00 mm 679.33 W/m2
15:04 35.0 °C 25.0 °C 1009.1 hPa NW 19 km/h 20 km/h 57% 0.00 mm 597.25 W/m2
15:09 34.0 °C 24.0 °C 1009.2 hPa NW 17 km/h 20 km/h 56% 0.00 mm 589.05 W/m2
15:14 34.0 °C 25.0 °C 1009.1 hPa NNW 23 km/h 28 km/h 57% 0.00 mm 615.11 W/m2
15:19 35.0 °C 24.0 °C 1009.0 hPa WNW 9 km/h 16 km/h 56% 0.00 mm 581.70 W/m2
15:24 35.0 °C 25.0 °C 1008.9 hPa NNW 24 km/h 28 km/h 59% 0.00 mm 303.64 W/m2
15:29 34.0 °C 24.0 °C 1009.0 hPa WSW 13 km/h 20 km/h 59% 0.00 mm 215.92 W/m2
15:34 34.0 °C 25.0 °C 1008.8 hPa NW 13 km/h 16 km/h 61% 0.00 mm 137.87 W/m2
15:39 33.0 °C 25.0 °C 1008.8 hPa NW 15 km/h 20 km/h 61% 0.00 mm 104.48 W/m2
15:44 33.0 °C 25.0 °C 1009.2 hPa NNW 21 km/h 24 km/h 63% 0.00 mm 70.22 W/m2
15:49 33.0 °C 25.0 °C 1009.2 hPa North 12 km/h 16 km/h 67% 0.00 mm 59.82 W/m2
15:54 32.0 °C 26.0 °C 1009.1 hPa SSW 15 km/h 20 km/h 71% 0.00 mm 80.62 W/m2
15:59 31.0 °C 25.0 °C 1009.2 hPa WNW 8 km/h 12 km/h 71% 0.00 mm 77.19 W/m2
16:04 31.0 °C 25.0 °C 1009.1 hPa NW 10 km/h 16 km/h 68% 0.00 mm 53.34 W/m2
16:09 31.0 °C 25.0 °C 1009.1 hPa NNW 10 km/h 12 km/h 68% 1.80 mm 38.53 W/m2
16:14 31.0 °C 25.0 °C 1009.3 hPa SW 6 km/h 8 km/h 71% 1.80 mm 26.42 W/m2
16:19 31.0 °C 25.0 °C 1009.5 hPa ESE 5 km/h 8 km/h 73% 1.80 mm 8.56 W/m2
16:24 31.0 °C 25.0 °C 1009.7 hPa South 10 km/h 12 km/h 73% 0.00 mm 13.82 W/m2
16:29 30.0 °C 25.0 °C 1009.4 hPa WNW 10 km/h 20 km/h 73% 0.00 mm 20.80 W/m2
16:34 30.0 °C 25.0 °C 1009.7 hPa NW 29 km/h 32 km/h 76% 0.00 mm 20.80 W/m2
16:39 29.0 °C 25.0 °C 1009.8 hPa NNW 21 km/h 28 km/h 76% 0.00 mm 19.08 W/m2
16:44 30.0 °C 25.0 °C 1009.6 hPa NNW 33 km/h 40 km/h 75% 0.00 mm 23.36 W/m2
16:49 30.0 °C 25.0 °C 1009.6 hPa North 24 km/h 28 km/h 74% 0.00 mm 23.36 W/m2
16:54 30.0 °C 25.0 °C 1009.7 hPa NNE 19 km/h 24 km/h 74% 0.00 mm 19.08 W/m2
16:59 30.0 °C 25.0 °C 1009.8 hPa North 18 km/h 20 km/h 74% 0.00 mm 14.31 W/m2
17:04 30.0 °C 25.0 °C 1009.9 hPa NNW 14 km/h 20 km/h 73% 0.00 mm 21.16 W/m2
17:09 30.0 °C 24.0 °C 1009.9 hPa NNE 11 km/h 16 km/h 72% 0.00 mm 22.51 W/m2
17:14 30.0 °C 25.0 °C 1010.0 hPa ENE 12 km/h 16 km/h 72% 0.00 mm 20.80 W/m2
17:19 30.0 °C 25.0 °C 1010.2 hPa SSW 13 km/h 16 km/h 77% 0.00 mm 24.71 W/m2
17:24 30.0 °C 25.0 °C 1010.0 hPa NW 11 km/h 12 km/h 76% 0.00 mm 28.14 W/m2
17:29 30.0 °C 25.0 °C 1009.9 hPa NW 15 km/h 20 km/h 77% 0.00 mm 31.19 W/m2
17:34 29.0 °C 25.0 °C 1009.8 hPa NNW 19 km/h 24 km/h 77% 0.00 mm 32.90 W/m2
17:39 29.0 °C 25.0 °C 1010.0 hPa NNW 10 km/h 12 km/h 76% 0.00 mm 32.90 W/m2
17:44 29.0 °C 25.0 °C 1010.0 hPa West 8 km/h 8 km/h 77% 0.00 mm 32.42 W/m2
17:49 29.0 °C 25.0 °C 1010.0 hPa WSW 5 km/h 8 km/h 78% 0.00 mm 29.48 W/m2
17:54 29.0 °C 25.0 °C 1010.1 hPa West 8 km/h 8 km/h 77% 0.00 mm 25.94 W/m2
17:59 30.0 °C 25.0 °C 1010.2 hPa WSW 5 km/h 8 km/h 77% 0.00 mm 22.51 W/m2
18:04 30.0 °C 25.0 °C 1010.2 hPa WSW 8 km/h 12 km/h 78% 0.00 mm 17.73 W/m2
18:09 29.0 °C 25.0 °C 1010.2 hPa SW 8 km/h 12 km/h 79% 0.00 mm 13.82 W/m2
18:14 29.0 °C 25.0 °C 1010.3 hPa SW 3 km/h 4 km/h 80% 0.00 mm 9.91 W/m2
18:19 29.0 °C 25.0 °C 1010.3 hPa Calm   4 km/h 78% 0.00 mm 5.14 W/m2
18:24 29.0 °C 25.0 °C 1010.3 hPa SW 4 km/h 4 km/h 78% 0.00 mm 1.71 W/m2
18:29 29.0 °C 25.0 °C 1010.4 hPa SW 5 km/h 8 km/h 78% 0.00 mm 0.36 W/m2
18:34 29.0 °C 25.0 °C 1010.7 hPa SW 4 km/h 8 km/h 78% 0.00 mm 0.00 W/m2
18:39 29.0 °C 25.0 °C 1010.8 hPa Calm     78% 0.00 mm 0.00 W/m2
18:44 30.0 °C 25.0 °C 1010.8 hPa Calm     78% 0.00 mm 0.00 W/m2
18:49 30.0 °C 25.0 °C 1010.9 hPa Calm     76% 0.00 mm 0.00 W/m2
18:54 30.0 °C 25.0 °C 1011.0 hPa SW 1 km/h 4 km/h 76% 0.00 mm 0.00 W/m2
18:59 30.0 °C 25.0 °C 1011.1 hPa SW 3 km/h 4 km/h 76% 0.00 mm 0.00 W/m2
19:04 30.0 °C 25.0 °C 1011.3 hPa Calm     75% 0.00 mm 0.00 W/m2
19:09 30.0 °C 25.0 °C 1011.1 hPa Calm   4 km/h 76% 0.00 mm 0.00 W/m2
19:14 30.0 °C 25.0 °C 1011.3 hPa SW 3 km/h 4 km/h 76% 0.00 mm 0.00 W/m2
19:19 30.0 °C 25.0 °C 1011.4 hPa SW 5 km/h 8 km/h 75% 0.00 mm 0.00 W/m2
19:24 30.0 °C 25.0 °C 1011.4 hPa SSW 9 km/h 12 km/h 75% 0.00 mm 0.00 W/m2
19:29 30.0 °C 25.0 °C 1011.3 hPa SSW 7 km/h 8 km/h 74% 0.00 mm 0.00 W/m2
19:34 30.0 °C 25.0 °C 1011.4 hPa South 11 km/h 12 km/h 74% 0.00 mm 0.00 W/m2
19:39 30.0 °C 25.0 °C 1011.5 hPa South 9 km/h 12 km/h 74% 0.00 mm 0.00 W/m2
19:44 30.0 °C 25.0 °C 1011.7 hPa South 15 km/h 16 km/h 74% 0.00 mm 0.00 W/m2
19:49 30.0 °C 25.0 °C 1011.7 hPa SSW 15 km/h 20 km/h 74% 0.00 mm 0.00 W/m2
19:54 30.0 °C 25.0 °C 1011.8 hPa South 13 km/h 20 km/h 74% 0.00 mm 0.00 W/m2
19:59 30.0 °C 25.0 °C 1011.8 hPa South 13 km/h 16 km/h 75% 0.00 mm 0.00 W/m2
20:04 30.0 °C 25.0 °C 1011.7 hPa South 13 km/h 16 km/h 74% 0.00 mm 0.00 W/m2
20:09 30.0 °C 25.0 °C 1011.7 hPa South 13 km/h 16 km/h 74% 0.00 mm 0.00 W/m2
20:14 30.0 °C 25.0 °C 1011.9 hPa SSE 17 km/h 20 km/h 73% 0.00 mm 0.00 W/m2
20:19 30.0 °C 25.0 °C 1012.1 hPa SSE 12 km/h 16 km/h 73% 0.00 mm 0.00 W/m2
20:24 30.0 °C 25.0 °C 1012.1 hPa SSE 5 km/h 8 km/h 72% 0.00 mm 0.00 W/m2
20:29 30.0 °C 25.0 °C 1012.0 hPa ESE 5 km/h 12 km/h 72% 0.00 mm 0.00 W/m2
20:39 30.0 °C 25.0 °C 1012.3 hPa NE 9 km/h 12 km/h 74% 0.00 mm 0.00 W/m2
20:44 30.0 °C 25.0 °C 1012.4 hPa East 8 km/h 16 km/h 76% 0.00 mm 0.00 W/m2
20:49 30.0 °C 25.0 °C 1012.5 hPa ENE 9 km/h 12 km/h 77% 0.00 mm 0.00 W/m2
20:54 29.0 °C 25.0 °C 1012.7 hPa East 6 km/h 8 km/h 79% 0.00 mm 0.00 W/m2
20:59 29.0 °C 25.0 °C 1012.8 hPa NE 12 km/h 16 km/h 80% 0.00 mm 0.00 W/m2
21:04 29.0 °C 25.0 °C 1012.6 hPa NE 10 km/h 12 km/h 81% 0.00 mm 0.00 W/m2
21:09 29.0 °C 25.0 °C 1012.8 hPa NE 8 km/h 8 km/h 81% 0.00 mm 0.00 W/m2
21:14 29.0 °C 25.0 °C 1012.8 hPa ENE 7 km/h 8 km/h 81% 0.00 mm 0.00 W/m2
21:19 29.0 °C 25.0 °C 1012.8 hPa ENE 3 km/h 4 km/h 80% 0.00 mm 0.00 W/m2
21:24 29.0 °C 25.0 °C 1013.1 hPa East 3 km/h 4 km/h 81% 0.00 mm 0.00 W/m2
21:29 29.0 °C 25.0 °C 1013.1 hPa ENE 11 km/h 16 km/h 82% 0.00 mm 0.00 W/m2
21:34 29.0 °C 25.0 °C 1013.1 hPa ENE 8 km/h 20 km/h 82% 0.00 mm 0.00 W/m2
21:39 29.0 °C 25.0 °C 1013.2 hPa ESE 12 km/h 16 km/h 81% 0.00 mm 0.00 W/m2
21:44 29.0 °C 25.0 °C 1013.4 hPa ENE 9 km/h 16 km/h 80% 0.00 mm 0.00 W/m2
21:49 29.0 °C 25.0 °C 1013.6 hPa East 4 km/h 8 km/h 80% 0.00 mm 0.00 W/m2
21:54 29.0 °C 25.0 °C 1013.8 hPa SE 6 km/h 12 km/h 81% 1.80 mm 0.00 W/m2
21:59 29.0 °C 25.0 °C 1013.8 hPa East 9 km/h 12 km/h 82% 1.80 mm 0.00 W/m2
22:04 28.0 °C 25.0 °C 1013.8 hPa East 5 km/h 12 km/h 82% 1.80 mm 0.00 W/m2
22:09 28.0 °C 25.0 °C 1013.8 hPa ESE 8 km/h 8 km/h 83% 1.80 mm 0.00 W/m2
22:13 28.0 °C 25.0 °C 1013.9 hPa SE 4 km/h 4 km/h 84% 1.80 mm 0.00 W/m2
22:24 28.0 °C 25.0 °C 1014.0 hPa East 8 km/h 12 km/h 84% 3.61 mm 0.00 W/m2
22:29 28.0 °C 25.0 °C 1014.1 hPa SSE 8 km/h 12 km/h 83% 1.80 mm 0.00 W/m2
22:34 28.0 °C 25.0 °C 1013.9 hPa NE 5 km/h 8 km/h 83% 1.80 mm 0.00 W/m2
22:39 28.0 °C 25.0 °C 1013.8 hPa East 8 km/h 12 km/h 83% 1.80 mm 0.00 W/m2
22:44 28.0 °C 25.0 °C 1013.8 hPa ENE 5 km/h 8 km/h 83% 1.80 mm 0.00 W/m2
22:49 28.0 °C 25.0 °C 1013.8 hPa East 4 km/h 4 km/h 83% 1.80 mm 0.00 W/m2
22:54 28.0 °C 25.0 °C 1013.6 hPa SE 4 km/h 4 km/h 83% 3.61 mm 0.00 W/m2
22:59 28.0 °C 25.0 °C 1013.5 hPa SE 4 km/h 8 km/h 83% 3.61 mm 0.00 W/m2
23:04 28.0 °C 25.0 °C 1013.5 hPa ESE 4 km/h 4 km/h 84% 3.61 mm 0.00 W/m2
23:09 28.0 °C 25.0 °C 1013.5 hPa ESE 1 km/h 4 km/h 84% 3.61 mm 0.00 W/m2
23:14 27.0 °C 25.0 °C 1013.4 hPa ESE 2 km/h 4 km/h 84% 3.61 mm 0.00 W/m2
23:19 27.0 °C 25.0 °C 1013.2 hPa ESE 4 km/h 4 km/h 84% 3.61 mm 0.00 W/m2
23:24 27.0 °C 25.0 °C 1013.3 hPa ESE 3 km/h 4 km/h 85% 3.61 mm 0.00 W/m2
23:29 27.0 °C 25.0 °C 1013.3 hPa ESE 1 km/h 4 km/h 86% 5.41 mm 0.00 W/m2
23:34 27.0 °C 25.0 °C 1013.1 hPa ENE 2 km/h 4 km/h 86% 5.41 mm 0.00 W/m2
23:39 27.0 °C 25.0 °C 1013.2 hPa ENE 2 km/h 4 km/h 87% 5.41 mm 0.00 W/m2
23:44 27.0 °C 25.0 °C 1013.0 hPa NE 7 km/h 8 km/h 87% 5.41 mm 0.00 W/m2
23:49 27.0 °C 25.0 °C 1012.7 hPa NE 5 km/h 8 km/h 87% 3.61 mm 0.00 W/m2
23:54 27.0 °C 24.0 °C 1012.5 hPa North 12 km/h 12 km/h 87% 1.80 mm 0.00 W/m2
23:58 27.0 °C 25.0 °C 1012.2 hPa NNW 12 km/h 16 km/h 88% 0.00 mm 0.00 W/m2
PIMOHWEATHER Philippines
Compliments of Weather Underground - 2 mb